• In Netherlands
  • List of Countries
  • For 7 days
  • Water Temperature
  • Satellite Maps
  • Weather Map
  • Weather Widgets
  • user-avatar
    Login

    Hourly Weather Yulara

    Today, 20 July, Friday

    Time Temperature Precipitation Wind Pressure Humidity
    00:00 +12°C° 0 mm 5 mps 722 mmHg 40%
    01:00 +10°C° 0 mm 5 mps 722 mmHg 45%
    02:00 +9°C° 0 mm 5 mps 721 mmHg 51%
    03:00 +9°C° 0 mm 5 mps 721 mmHg 53%
    04:00 +8°C° 0 mm 4 mps 722 mmHg 59%
    05:00 +8°C° 0 mm 4 mps 722 mmHg 64%
    06:00 +7°C° 0 mm 4 mps 722 mmHg 69%
    07:00 +8°C° 0 mm 5 mps 723 mmHg 67%
    08:00 +9°C° 0 mm 5 mps 723 mmHg 64%
    09:00 +10°C° 0 mm 6 mps 723 mmHg 61%
    10:00 +13°C° 0 mm 6 mps 723 mmHg 53%
    11:00 +15°C° 0 mm 6 mps 723 mmHg 46%
    12:00 +17°C° 0 mm 5 mps 722 mmHg 38%
    13:00 +19°C° 0 mm 4 mps 722 mmHg 35%
    14:00 +20°C° 0 mm 4 mps 721 mmHg 32%
    15:00 +21°C° 0 mm 3 mps 720 mmHg 29%
    16:00 +19°C° 0 mm 3 mps 720 mmHg 32%
    17:00 +17°C° 0 mm 2 mps 720 mmHg 36%
    18:00 +15°C° 0 mm 2 mps 720 mmHg 40%
    19:00 +15°C° 0 mm 2 mps 720 mmHg 41%
    20:00 +13°C° 0 mm 3 mps 721 mmHg 42%
    21:00 +13°C° 0 mm 3 mps 721 mmHg 43%
    22:00 +12°C° 0 mm 3 mps 721 mmHg 45%
    23:00 +12°C° 0 mm 4 mps 721 mmHg 46%

    Tomorrow, 21 July, Saturday

    Time Temperature Precipitation Wind Pressure Humidity
    00:00 +11°C° 0 mm 4 mps 721 mmHg 48%
    01:00 +11°C° 0 mm 4 mps 721 mmHg 49%
    02:00 +10°C° 0 mm 4 mps 721 mmHg 50%
    03:00 +10°C° 0 mm 4 mps 721 mmHg 51%
    04:00 +8°C° 0 mm 4 mps 721 mmHg 52%
    05:00 +7°C° 0 mm 4 mps 721 mmHg 52%
    06:00 +8°C° 0 mm 3 mps 721 mmHg 53%
    07:00 +10°C° 0 mm 3 mps 721 mmHg 49%
    08:00 +11°C° 0 mm 3 mps 722 mmHg 45%
    09:00 +13°C° 0 mm 3 mps 722 mmHg 41%
    10:00 +16°C° 0 mm 3 mps 722 mmHg 36%
    11:00 +19°C° 0 mm 4 mps 721 mmHg 32%
    12:00 +21°C° 0 mm 4 mps 721 mmHg 27%
    13:00 +22°C° 0 mm 4 mps 720 mmHg 25%
    14:00 +25°C° 0 mm 4 mps 720 mmHg 23%
    15:00 +26°C° 0 mm 4 mps 719 mmHg 21%
    16:00 +23°C° 0 mm 4 mps 719 mmHg 24%
    17:00 +21°C° 0 mm 3 mps 719 mmHg 28%
    18:00 +18°C° 0 mm 2 mps 718 mmHg 32%
    19:00 +18°C° 0 mm 2 mps 719 mmHg 34%
    20:00 +18°C° 0 mm 1 mps 719 mmHg 36%
    21:00 +16°C° 0 mm 1 mps 719 mmHg 38%
    22:00 +16°C° 0 mm 1 mps 719 mmHg 38%
    23:00 +16°C° 0 mm 2 mps 719 mmHg 38%

    Day after tomorrow, 22 July, Sunday

    Time Temperature Precipitation Wind Pressure Humidity
    00:00 +16°C° 0 mm 2 mps 719 mmHg 37%
    01:00 +16°C° 0 mm 3 mps 719 mmHg 38%
    02:00 +14°C° 0 mm 3 mps 719 mmHg 38%
    03:00 +14°C° 0 mm 3 mps 719 mmHg 39%
    04:00 +13°C° 0 mm 3 mps 719 mmHg 40%
    05:00 +13°C° 0 mm 3 mps 719 mmHg 42%
    06:00 +13°C° 0 mm 2 mps 718 mmHg 43%
    07:00 +14°C° 0 mm 3 mps 719 mmHg 39%
    08:00 +17°C° 0 mm 3 mps 719 mmHg 34%
    09:00 +19°C° 0 mm 4 mps 720 mmHg 29%
    10:00 +21°C° 0 mm 4 mps 720 mmHg 25%
    11:00 +25°C° 0 mm 5 mps 720 mmHg 22%
    12:00 +27°C° 0 mm 6 mps 719 mmHg 19%
    13:00 +28°C° 0 mm 6 mps 719 mmHg 18%
    14:00 +29°C° 0 mm 6 mps 718 mmHg 16%
    15:00 +29°C° 0 mm 6 mps 718 mmHg 15%
    16:00 +27°C° 0 mm 6 mps 717 mmHg 18%
    17:00 +25°C° 0 mm 5 mps 717 mmHg 20%
    18:00 +22°C° 0 mm 4 mps 717 mmHg 22%
    19:00 +22°C° 0 mm 4 mps 717 mmHg 23%
    20:00 +21°C° 0 mm 4 mps 717 mmHg 24%
    21:00 +20°C° 0 mm 4 mps 718 mmHg 25%
    22:00 +19°C° 0 mm 4 mps 718 mmHg 26%
    23:00 +19°C° 0 mm 4 mps 718 mmHg 27%

    23 July, Monday

    Time Temperature Precipitation Wind Pressure Humidity
    00:00 +17°C° 0 mm 5 mps 718 mmHg 29%
    01:00 +16°C° 0 mm 5 mps 717 mmHg 30%
    02:00 +16°C° 0 mm 5 mps 717 mmHg 31%
    03:00 +15°C° 0 mm 5 mps 717 mmHg 32%
    04:00 +15°C° 0 mm 5 mps 717 mmHg 33%
    05:00 +14°C° 0 mm 5 mps 716 mmHg 35%
    06:00 +14°C° 0 mm 5 mps 716 mmHg 36%
    07:00 +15°C° 0 mm 6 mps 717 mmHg 32%
    08:00 +17°C° 0 mm 7 mps 718 mmHg 28%
    09:00 +19°C° 0 mm 9 mps 718 mmHg 25%
    10:00 +22°C° 0 mm 9 mps 718 mmHg 24%
    11:00 +26°C° 0 mm 10 mps 718 mmHg 22%
    12:00 +28°C° 0 mm 11 mps 718 mmHg 21%
    13:00 +28°C° 0 mm 10 mps 718 mmHg 23%
    14:00 +27°C° 0 mm 10 mps 717 mmHg 24%
    15:00 +27°C° 0 mm 9 mps 717 mmHg 26%
    16:00 +26°C° 0 mm 8 mps 717 mmHg 30%
    17:00 +23°C° 0 mm 7 mps 717 mmHg 35%
    18:00 +21°C° 0 mm 5 mps 717 mmHg 40%
    19:00 +20°C° 0 mm 5 mps 718 mmHg 43%
    20:00 +19°C° 0 mm 5 mps 719 mmHg 47%
    21:00 +16°C° 0 mm 5 mps 719 mmHg 51%
    22:00 +16°C° 0 mm 5 mps 719 mmHg 49%
    23:00 +15°C° 0 mm 6 mps 719 mmHg 48%

    24 July, Tuesday

    Time Temperature Precipitation Wind Pressure Humidity
    00:00 +14°C° 0 mm 6 mps 719 mmHg 47%
    01:00 +14°C° 0 mm 6 mps 720 mmHg 46%
    02:00 +13°C° 0 mm 5 mps 720 mmHg 46%
    03:00 +12°C° 0 mm 5 mps 720 mmHg 45%
    04:00 +11°C° 0 mm 4 mps 720 mmHg 47%
    05:00 +10°C° 0 mm 4 mps 720 mmHg 49%
    06:00 +9°C° 0 mm 3 mps 721 mmHg 51%
    07:00 +11°C° 0 mm 4 mps 721 mmHg 47%
    08:00 +12°C° 0 mm 5 mps 722 mmHg 42%
    09:00 +13°C° 0 mm 6 mps 722 mmHg 38%
    10:00 +15°C° 0 mm 5 mps 722 mmHg 34%
    11:00 +17°C° 0 mm 5 mps 722 mmHg 31%
    12:00 +19°C° 0 mm 5 mps 721 mmHg 27%
    13:00 +20°C° 0 mm 4 mps 721 mmHg 26%
    14:00 +21°C° 0 mm 3 mps 720 mmHg 26%
    15:00 +23°C° 0 mm 2 mps 720 mmHg 25%
    16:00 +20°C° 0 mm 2 mps 720 mmHg 29%
    17:00 +19°C° 0 mm 2 mps 720 mmHg 32%
    18:00 +17°C° 0 mm 2 mps 720 mmHg 35%
    19:00 +16°C° 0 mm 3 mps 721 mmHg 35%
    20:00 +16°C° 0 mm 3 mps 721 mmHg 36%
    21:00 +15°C° 0 mm 4 mps 722 mmHg 36%
    22:00 +14°C° 0 mm 4 mps 722 mmHg 37%
    23:00 +13°C° 0 mm 4 mps 721 mmHg 38%

    25 July, Wednesday

    Time Temperature Precipitation Wind Pressure Humidity
    00:00 +12°C° 0 mm 4 mps 721 mmHg 39%
    01:00 +12°C° 0 mm 4 mps 721 mmHg 39%
    02:00 +11°C° 0 mm 4 mps 721 mmHg 39%
    03:00 +11°C° 0 mm 4 mps 721 mmHg 39%
    04:00 +10°C° 0 mm 4 mps 721 mmHg 40%
    05:00 +10°C° 0 mm 4 mps 721 mmHg 40%
    06:00 +10°C° 0 mm 4 mps 722 mmHg 40%
    07:00 +10°C° 0 mm 5 mps 722 mmHg 37%
    08:00 +12°C° 0 mm 5 mps 722 mmHg 34%
    09:00 +14°C° 0 mm 6 mps 722 mmHg 30%
    10:00 +16°C° 0 mm 6 mps 722 mmHg 28%
    11:00 +20°C° 0 mm 6 mps 722 mmHg 26%
    12:00 +22°C° 0 mm 6 mps 721 mmHg 23%
    13:00 +23°C° 0 mm 5 mps 721 mmHg 23%
    14:00 +25°C° 0 mm 4 mps 720 mmHg 23%
    15:00 +26°C° 0 mm 4 mps 719 mmHg 23%
    16:00 +22°C° 0 mm 3 mps 719 mmHg 27%
    17:00 +20°C° 0 mm 2 mps 719 mmHg 31%
    18:00 +19°C° 0 mm 1 mps 719 mmHg 34%
    19:00 +18°C° 0 mm 2 mps 719 mmHg 34%
    20:00 +18°C° 0 mm 3 mps 720 mmHg 33%
    21:00 +19°C° 0 mm 4 mps 720 mmHg 33%
    22:00 +17°C° 0 mm 5 mps 720 mmHg 33%
    23:00 +17°C° 0 mm 5 mps 720 mmHg 33%
    Show more